Stations météo

réclame
Mon MeteoGroup
Cannes, France (7684): Température de l'air & dewpoint: 18.01.2018 10:00:00 - 24.01.2018 10:00:00 (CET)Cannes, France (7684): Température de l'air 5cm: 18.01.2018 10:00:00 - 24.01.2018 10:00:00 (CET)Cannes, France (7684): Vitesse du vent & gusts: 18.01.2018 10:00:00 - 24.01.2018 10:00:00 (CET)Cannes, France (7684): Direction du vent: 18.01.2018 10:00:00 - 24.01.2018 10:00:00 (CET)Cannes, France (7684): reduced air pressure: 18.01.2018 10:00:00 - 24.01.2018 10:00:00 (CET)Cannes, France (7684): visibility: 18.01.2018 10:00:00 - 24.01.2018 10:00:00 (CET)Cannes, France (7684): Quantités de précipitations: 18.01.2018 10:00:00 - 24.01.2018 10:00:00 (CET)
Date & Time tt [°C] td [°C] tt 5cm [°C] ff [km/h] ff [knt] fx [km/h] fx [knt] dd ppp [hPa] vv [km] rr [mm]
24.01.2018 10:00:00 8,7 4,1 7,8 8 5 15 8 N 1030,4 19 0,0
24.01.2018 09:00:00 5,7 2,9 2,8 8 4 13 7 N 1030,2 19 0,0
24.01.2018 08:00:00 4,5 2,2 2,8 8 4 15 8 N 1030,0 31 0,0
24.01.2018 07:00:00 4,2 2,2 2,6 8 5 16 9 N 1029,5 32 0,0
24.01.2018 06:00:00 4,3 2,3 2,9 10 5 19 11 N 1029,0 33 0,0
24.01.2018 05:00:00 4,7 2,7 3,1 11 6 19 10 N 1028,7 27 0,0
24.01.2018 04:00:00 4,5 2,8 2,9 10 5 16 9 N 1028,4 23 0,0
24.01.2018 03:00:00 4,4 2,9 2,9 8 4 16 9 N 1028,2 19 0,2
24.01.2018 02:00:00 5,0 3,7 3,0 8 5 14 8 N 1027,8 15 0,0
24.01.2018 01:00:00 5,5 4,3 4,0 10 5 16 9 N 1027,7 13 0,0
24.01.2018 00:00:00 5,7 4,7 4,1 8 4 12 6 N 1027,4 9 0,0
23.01.2018 23:00:00 6,0 5,1 4,5 7 4 16 8 N 1026,8 8 0,0
23.01.2018 22:00:00 6,8 6,1 3,4 8 5 13 7 NNE 1026,0 8 0,0
23.01.2018 21:00:00 7,3 6,2 5,2 5 3 9 5 N 1025,4 8 0,0
23.01.2018 20:00:00 8,0 6,9 6,0 5 3 11 6 N 1025,1 7 0,0
23.01.2018 19:00:00 9,7 8,0 5,4 4 2 7 4 NNW 1024,3 5 0,0
23.01.2018 18:00:00 10,9 8,6 5,9 2 1 8 4 W 1023,4 25 0,0
23.01.2018 17:00:00 13,2 9,1 13,9 5 3 11 6 S 1022,4 56 0,0
23.01.2018 16:00:00 14,6 9,4 18,2 5 3 16 9 S 1021,8 53 0,0
23.01.2018 15:00:00 14,4 9,2 18,7 11 6 16 9 S 1021,2 60 0,0
23.01.2018 14:00:00 14,7 9,7 15,6 11 6 18 10 SSE 1020,8 36 0,0
23.01.2018 13:00:00 14,8 8,9 19,3 10 5 19 11 S 1020,8 27 0,0
23.01.2018 12:00:00 14,9 7,9 19,6 7 4 12 6 SE 1020,8 59 0,0
23.01.2018 11:00:00 13,5 8,1 14,0 3 2 12 6 SSW 1020,9 12 0,0
23.01.2018 10:00:00 9,0 5,0 8,7 6 3 16 9 N 1020,1 8 0,0
23.01.2018 09:00:00 5,8 3,6 3,3 8 4 17 9 N 1019,5 20 0,0
23.01.2018 08:00:00 4,5 2,8 3,0 8 4 14 8 N 1018,4 26 0,0
23.01.2018 07:00:00 4,8 3,0 3,4 8 4 16 8 N 1017,8 31 0,0
23.01.2018 06:00:00 5,0 3,3 3,4 9 5 17 9 N 1017,4 30 0,0
23.01.2018 05:00:00 5,1 3,8 3,3 7 4 14 7 N 1017,4 25 0,0
23.01.2018 04:00:00 5,0 3,7 3,2 6 4 14 7 N 1017,0 19 0,0
23.01.2018 03:00:00 5,1 4,1 3,0 5 3 10 6 N 1016,5 15 0,0
23.01.2018 02:00:00 5,4 4,4 4,0 6 4 13 7 N 1016,2 12 0,0
23.01.2018 01:00:00 6,1 4,7 4,8 7 4 12 6 N 1015,6 12 0,0
23.01.2018 00:00:00 7,0 5,1 5,4 6 4 11 6 N 1015,1 12 0,0
22.01.2018 23:00:00 8,5 5,4 6,6 5 3 16 9 NNE 1014,5 18 0,0
22.01.2018 22:00:00 10,5 6,3 8,8 10 5 33 18 N 1013,8 29 0,0
22.01.2018 21:00:00 14,8 5,8 4,8 21 11 35 19 WSW 1012,0 60 0,0
22.01.2018 20:00:00 7,7 6,0 4,8 7 4 15 8 W 1012,3 14 0,0
22.01.2018 19:00:00 8,7 6,1 7,0 7 4 14 8 NNW 1011,8 13 0,0
22.01.2018 18:00:00 10,2 6,7 6,3 5 3 9 5 N 1012,2 22 0,0
22.01.2018 17:00:00 11,7 6,6 9,4 4 2 13 7 S 1012,8 60 0,0
22.01.2018 16:00:00 13,5 6,8 14,3 8 5 15 8 SSE 1014,0 57 0,0
22.01.2018 15:00:00 14,5 7,1 15,1 10 5 16 8 S 1014,1 60 0,0
22.01.2018 14:00:00 14,6 5,9 15,9 8 4 14 7 SSE 1014,7 58 0,0
22.01.2018 13:00:00 15,1 5,6 16,2 6 3 13 7 S 1015,5 55 0,0
22.01.2018 12:00:00 12,4 5,8 11,3 3 1 8 4 NNE 1016,3 12 0,0
22.01.2018 11:00:00 9,4 5,0 8,8 3 1 12 6 N 1016,5 8 0,0
22.01.2018 10:00:00 8,2 4,0 6,6 5 3 14 8 N 1015,9 19 0,0
22.01.2018 09:00:00 6,9 3,3 5,1 6 3 14 7 N 1014,8 37 0,0
22.01.2018 08:00:00 6,5 2,9 5,2 5 3 14 8 N 1013,4 39 0,0
22.01.2018 07:00:00 6,2 2,8 5,3 7 4 19 11 N 1012,9 56 0,0
22.01.2018 06:00:00 6,5 2,8 5,1 9 5 15 8 N 1012,5 59 0,0
22.01.2018 05:00:00 6,2 2,8 4,8 10 5 17 9 N 1012,5 56 0,0
22.01.2018 04:00:00 6,3 2,9 5,0 10 5 17 9 N 1012,8 47 0,0
22.01.2018 03:00:00 6,5 3,1 4,1 8 4 14 7 N 1013,2 47 0,0
22.01.2018 02:00:00 6,5 3,3 4,8 7 4 15 8 N 1013,2 36 0,0
22.01.2018 01:00:00 6,7 3,7 5,0 8 5 15 8 N 1013,1 30 0,0
22.01.2018 00:00:00 7,4 4,0 5,3 9 5 16 9 N 1013,0 27 0,0
21.01.2018 23:00:00 7,2 4,5 5,1 10 5 16 8 N 1012,4 14 0,0
21.01.2018 22:00:00 7,2 4,7 5,6 6 4 16 9 N 1012,3 15 0,0
21.01.2018 21:00:00 7,6 5,4 6,2 7 4 11 6 N 1011,5 17 0,0
21.01.2018 20:00:00 8,5 6,1 6,6 6 4 13 7 N 1010,6 16 0,0
21.01.2018 19:00:00 9,4 6,1 6,8 6 3 10 5 N 1009,8 21 0,0
21.01.2018 18:00:00 11,1 6,6 7,9 5 3 11 6 N 1009,0 31 0,0
21.01.2018 17:00:00 13,3 7,3 12,1 6 4 11 6 SW 1008,6 49 0,0
21.01.2018 16:00:00 14,3 7,8 16,3 8 4 19 11 SSE 1008,2 47 0,0
21.01.2018 15:00:00 14,4 8,6 17,0 11 6 16 9 SSE 1007,4 39 0,0
21.01.2018 14:00:00 14,9 7,7 15,8 11 6 20 11 S 1007,7 31 0,0
21.01.2018 13:00:00 14,9 6,7 19,4 11 6 16 9 SSE 1007,9 20 0,0
21.01.2018 12:00:00 15,0 6,8 19,6 6 3 12 7 S 1008,0 20 0,0
21.01.2018 11:00:00 14,5 7,3 17,7 3 2 10 5 N 1007,7 30 0,0
21.01.2018 10:00:00 12,2 6,0 10,1 4 2 9 5 N 1006,1 35 0,0
21.01.2018 09:00:00 10,6 5,4 7,5 5 3 10 6 NNE 1005,1 55 0,0
21.01.2018 08:00:00 10,8 5,3 8,3 6 3 18 10 N 1003,8 60 0,0
21.01.2018 07:00:00 11,9 6,0 10,6 12 7 54 29 ESE 1002,0 58 0,0
21.01.2018 06:00:00 18,2 -0,1 15,6 24 13 59 32 WNW 1000,9 60 0,0
21.01.2018 05:00:00 17,7 1,2 15,4 24 13 52 28 W 1000,6 60 0,0
21.01.2018 04:00:00 17,4 3,3 14,3 19 10 55 30 W 1000,6 60 0,0
21.01.2018 03:00:00 16,5 4,2 14,2 22 12 51 27 SSW 1001,7 60 0,0
21.01.2018 02:00:00 16,5 5,1 14,2 27 15 66 36 WSW 1001,6 60 0,0
21.01.2018 01:00:00 15,8 6,0 - 34 18 70 38 W 1001,9 60 -
21.01.2018 00:00:00 15,2 5,4 13,5 30 16 63 34 W 1003,2 60 0,0
20.01.2018 23:00:00 14,8 5,0 12,5 24 13 54 29 WNW 1004,0 60 0,0
20.01.2018 22:00:00 14,2 4,7 11,7 20 11 42 23 W 1005,0 60 0,0
20.01.2018 21:00:00 13,2 4,6 9,1 20 11 50 27 W 1006,1 60 0,0
20.01.2018 20:00:00 10,3 4,0 8,6 26 14 44 24 SSW 1007,8 60 0,0
20.01.2018 19:00:00 - - - - - - - - - - -
20.01.2018 18:00:00 9,9 2,5 9,0 21 11 33 18 SW 1010,5 60 0,0
20.01.2018 17:00:00 10,0 2,1 9,2 19 11 41 22 SW 1011,7 60 0,0
20.01.2018 16:00:00 11,7 1,0 11,3 21 11 46 25 WSW 1011,4 60 0,0
20.01.2018 15:00:00 13,2 -2,7 12,9 29 16 45 24 W 1011,0 56 0,0
20.01.2018 14:00:00 15,0 -2,0 15,4 9 5 19 10 ESE 1011,9 60 0,0
20.01.2018 13:00:00 15,3 -1,8 19,4 6 3 16 9 S 1013,5 60 0,0
20.01.2018 12:00:00 15,0 -0,8 17,3 2 1 9 5 W 1014,5 26 0,0
20.01.2018 11:00:00 11,9 -4,3 10,5 3 2 18 10 N 1015,3 55 0,0
20.01.2018 10:00:00 8,3 -4,2 4,7 8 4 18 10 NNW 1014,9 48 0,0
20.01.2018 09:00:00 4,7 -4,6 1,9 6 4 13 7 N 1014,7 57 0,0
20.01.2018 08:00:00 4,4 -4,6 0,2 3 1 11 6 N 1014,3 60 0,0
20.01.2018 07:00:00 4,5 -5,3 -0,4 8 4 14 8 NNE 1013,3 60 0,0
20.01.2018 06:00:00 5,2 -4,7 2,3 7 4 21 11 E 1012,8 60 0,0
20.01.2018 05:00:00 6,0 -4,2 3,2 8 4 22 12 N 1012,2 60 0,0
20.01.2018 04:00:00 9,9 -6,1 7,7 17 9 33 18 W 1011,9 60 0,0
20.01.2018 03:00:00 10,1 -4,3 8,1 17 9 36 19 W 1012,6 60 0,0
20.01.2018 02:00:00 10,7 -4,2 8,3 16 8 32 17 W 1012,9 60 0,0
20.01.2018 01:00:00 10,1 -2,9 8,4 19 11 39 21 W 1013,3 60 0,0
20.01.2018 00:00:00 10,7 -3,4 9,1 21 11 38 21 W 1013,8 60 0,0
19.01.2018 23:00:00 11,1 -4,6 9,7 23 12 44 24 W 1013,6 60 0,0
19.01.2018 22:00:00 12,9 -7,2 10,8 21 11 49 27 W 1013,0 60 0,0
19.01.2018 21:00:00 12,7 -6,3 3,8 16 9 37 20 W 1012,5 60 0,0
19.01.2018 20:00:00 12,3 -2,7 5,9 3 2 33 18 S 1012,1 60 0,0
19.01.2018 19:00:00 14,6 -6,9 12,5 16 9 48 26 WNW 1010,8 60 0,0
19.01.2018 18:00:00 15,0 -6,0 13,1 22 12 44 24 WNW 1009,8 60 0,0
19.01.2018 17:00:00 16,5 -6,6 15,1 25 13 47 25 WNW 1009,2 39 0,0
19.01.2018 16:00:00 18,1 -8,2 18,0 21 11 49 27 WNW 1008,5 48 0,0
19.01.2018 15:00:00 19,3 -5,6 19,9 25 14 53 29 WNW 1007,8 40 0,0
19.01.2018 14:00:00 18,6 0,7 17,9 24 13 44 24 WSW 1007,9 47 0,0
19.01.2018 13:00:00 19,2 0,2 20,4 21 11 44 24 W 1008,1 57 0,0
19.01.2018 12:00:00 18,4 1,4 18,6 16 9 36 20 WSW 1008,1 60 0,0
19.01.2018 11:00:00 18,1 -2,3 15,9 18 10 51 28 W 1008,4 10 0,0
19.01.2018 10:00:00 14,5 2,7 12,4 24 13 43 23 W 1008,4 10 0,0
19.01.2018 09:00:00 13,0 3,4 11,8 25 14 50 27 W 1009,1 60 0,0
19.01.2018 08:00:00 13,2 2,7 11,1 29 16 49 26 W 1009,0 10 0,0
19.01.2018 07:00:00 12,4 2,8 10,7 26 14 44 24 W 1009,4 10 0,0
19.01.2018 06:00:00 11,9 2,6 10,6 24 13 42 23 W 1009,5 10 0,0
19.01.2018 05:00:00 13,1 2,3 8,4 28 15 49 26 W 1009,5 10 0,0
19.01.2018 04:00:00 12,0 3,7 8,7 9 5 39 21 - 1009,7 10 0,0
19.01.2018 03:00:00 15,6 1,7 13,1 21 11 52 28 W 1010,0 10 0,0
19.01.2018 02:00:00 14,2 2,4 11,9 31 17 50 27 W 1009,7 10 0,0
19.01.2018 01:00:00 12,9 2,4 11,3 31 17 54 29 W 1010,3 10 0,0
19.01.2018 00:00:00 12,9 2,1 11,0 31 17 59 32 W 1010,3 10 0,0
18.01.2018 23:00:00 12,0 2,4 10,5 29 16 58 31 W 1010,6 10 0,0
18.01.2018 22:00:00 12,2 2,3 11,1 31 17 66 36 W 1011,4 10 0,0
18.01.2018 21:00:00 12,3 1,9 11,2 31 17 65 35 W 1011,6 10 0,0
18.01.2018 20:00:00 12,3 1,6 11,2 35 19 69 38 W 1012,2 10 0,0
18.01.2018 19:00:00 12,5 1,8 11,4 35 19 71 39 W 1012,4 10 0,0
18.01.2018 18:00:00 13,0 1,6 12,0 34 18 69 37 W 1012,1 10 0,0
18.01.2018 17:00:00 13,7 1,7 12,8 39 21 71 38 W 1012,2 44 0,0
18.01.2018 16:00:00 14,6 1,8 15,4 33 18 64 35 W 1012,3 23 0,0
18.01.2018 15:00:00 15,1 1,6 16,3 37 20 72 39 W 1012,2 10 0,0
18.01.2018 14:00:00 15,3 1,0 15,0 40 22 73 40 W 1012,6 33 0,0
18.01.2018 13:00:00 14,8 0,2 12,6 22 12 58 31 WNW 1013,9 39 0,0
18.01.2018 12:00:00 13,0 -0,7 12,2 25 14 59 32 W 1015,1 20 0,0
18.01.2018 11:00:00 11,6 -1,6 10,4 37 20 63 34 W 1015,7 10 0,0
18.01.2018 10:00:00 10,3 -2,1 6,8 9 5 25 13 WSW 1016,3 60 0,0

tt = Température de l'air
td = dewpoint
tt 5cm = Température de l'air 5cm
ff = Vitesse du vent
fx = gusts
dd = Direction du vent
ppp = reduced air pressure
vv = visibility
rr = Quantités de précipitations

stations d'obs. à proximité